Theta_e
308 308 308 308 307 307 308 309 309 310 310 312 313 314 315 314 314 322 323 328 327 320 318 321 321 322 322 323 316 321 314 316 316 311 311 309 308 309 306 307 305 303 303 301 302 296 292 311 308 302 309 311 311 311
309 308 307 307 307 307 307 308 309 309 310 311 313 314 315 314 313 318 321 327 329 323 318 323 322 323 324 324 324 321 317 315 319 313 314 312 308 312 307 300 311 301 307 302 304 302 312 314 311 312 313 310 312 314
309 308 307 307 306 307 307 308 308 309 310 311 312 314 314 314 313 319 323 326 325 320 319 320 317 321 325 326 330 317 319 321 321 324 317 314 308 313 304 304 306 309 312 307 306 310 311 310 313 315 315 312 312 314
308 308 307 306 306 307 307 307 308 309 310 310 312 313 314 313 313 320 324 325 323 320 314 315 323 320 328 330 327 328 325 327 327 322 316 312 308 314 307 308 307 310 311 309 306 308 311 309 311 312 312 314 314 315
308 307 307 306 307 307 307 307 308 309 309 311 312 313 313 313 313 321 324 324 324 319 312 314 322 325 328 329 328 329 328 326 319 314 312 309 312 311 311 309 306 310 309 305 303 310 309 308 311 310 309 310 311 311
307 307 306 306 306 306 307 307 308 309 310 311 312 312 312 311 311 325 317 326 325 326 315 310 319 321 324 326 325 324 324 322 319 315 313 314 317 315 308 302 308 310 311 311 306 311 310 308 308 309 308 308 309 311
307 306 306 306 306 306 306 307 308 309 309 310 310 311 310 312 326 320 316 320 314 327 317 312 313 319 321 323 322 322 325 321 319 316 313 313 312 314 308 301 306 306 306 307 307 307 305 306 304 307 307 307 308 310
307 306 305 305 306 306 306 307 308 309 309 309 310 311 309 309 311 320 321 315 316 324 320 311 311 315 320 316 314 324 318 318 317 314 315 311 313 313 305 308 309 310 310 308 308 309 308 309 308 308 308 307 305 305
306 306 305 305 306 306 306 307 308 308 309 309 309 309 320 320 319 320 314 316 327 322 314 314 309 307 320 317 317 318 322 311 320 313 312 315 310 304 305 307 307 306 305 307 308 308 308 307 307 307 306 306 305 305
306 305 305 305 306 306 307 307 308 308 309 310 320 318 315 318 312 317 323 320 319 318 318 311 315 309 315 315 314 315 318 313 309 311 316 309 302 310 309 309 309 309 310 309 306 305 306 306 307 307 307 307 306 306
305 305 305 305 306 307 307 307 308 308 312 322 317 315 321 315 321 320 313 310 313 309 313 313 313 311 316 312 311 314 313 315 307 309 310 302 299 306 309 309 311 312 311 310 310 309 309 308 307 308 308 308 308 309
305 305 305 306 306 307 307 307 307 319 320 314 317 315 323 319 315 309 308 310 308 305 312 312 311 314 315 317 314 314 310 312 304 316 309 298 304 309 311 309 310 308 309 309 309 308 309 309 309 309 308 307 308 310
304 304 305 306 306 306 307 307 308 307 309 322 319 314 312 311 301 302 299 304 306 311 311 314 310 314 314 316 312 312 305 306 314 308 301 303 308 310 311 310 308 310 309 309 309 310 310 310 311 309 309 309 310 310
304 305 306 306 306 306 306 307 308 311 321 314 309 296 305 303 305 306 306 307 309 312 312 314 311 312 313 310 310 304 309 311 303 300 298 307 310 309 309 310 309 308 310 310 310 311 310 310 309 310 311 311 310 309
304 305 305 306 306 306 306 307 308 322 319 310 309 298 303 307 309 309 310 312 310 313 314 312 310 312 309 307 310 307 302 299 302 301 305 311 311 308 309 310 309 310 310 310 310 309 309 309 308 308 309 309 309 307
305 306 308 305 305 306 306 313 320 323 316 311 308 304 307 306 305 307 308 309 311 313 315 314 308 304 304 308 303 300 299 299 303 308 311 312 311 310 312 312 311 311 310 310 310 309 308 307 306 306 306 306 305 304
305 310 305 305 305 306 308 321 320 312 310 306 305 309 306 305 305 306 308 308 311 311 308 309 300 300 309 303 300 306 303 306 309 311 312 314 312 313 314 312 310 309 309 308 307 307 307 307 306 304 302 303 303 303
310 311 307 305 307 314 318 317 314 310 304 308 306 306 307 309 309 308 310 311 311 311 311 305 310 303 301 298 302 307 309 311 312 312 312 314 315 314 312 310 308 307 307 307 307 307 305 304 303 301 302 302 301 302
308 308 305 305 308 313 312 311 313 305 306 309 309 310 310 309 311 312 313 312 313 315 312 309 303 303 304 309 307 309 310 310 309 309 311 313 313 311 310 308 307 307 307 307 307 304 303 303 302 301 301 301 299 300
304 304 304 305 308 313 307 309 315 309 307 308 311 308 309 309 312 313 312 313 314 311 306 304 305 306 307 308 311 311 311 311 309 307 308 309 312 311 310 307 306 308 306 306 305 297 301 301 302 301 301 299 299 298
309 310 308 312 315 313 310 309 309 309 310 308 310 310 307 312 310 309 308 313 309 307 304 308 308 310 313 312 311 311 310 312 311 308 309 309 311 311 309 308 308 306 305 304 302 301 298 301 301 300 300 300 300 300
312 305 313 311 309 309 309 310 309 311 310 308 308 310 307 306 307 307 310 308 307 308 309 308 309 310 309 310 311 314 313 314 314 309 300 303 307 307 306 307 306 304 303 303 303 301 301 302 301 300 300 300 299 301
306 309 311 307 304 302 302 311 305 306 303 304 306 303 304 306 309 311 307 309 309 313 311 310 312 312 311 313 314 314 314 313 311 311 311 309 310 309 307 307 308 305 303 303 303 302 301 296 299 299 300 299 300 300
302 305 302 302 303 299 306 303 307 305 305 303 302 299 303 307 310 306 303 307 309 311 310 312 311 310 311 312 310 311 312 313 311 311 312 310 308 307 309 307 308 307 306 305 303 302 302 301 295 300 299 298 298 298
298 296 299 293 303 299 297 298 299 301 297 300 299 300 304 308 302 301 301 307 308 309 310 311 311 310 309 310 311 311 314 312 310 309 310 311 308 307 307 308 308 308 308 303 301 301 301 301 300 299 298 298 297 296
293 298 297 299 300 298 299 295 296 297 299 298 300 305 307 304 297 296 303 308 310 311 311 310 309 309 309 310 309 308 310 313 312 309 309 310 308 307 306 305 304 305 309 304 302 301 300 300 299 298 297 297 290 295
293 295 302 306 305 303 302 303 303 301 296 297 301 300 301 294 295 302 308 312 311 314 315 314 313 311 310 310 312 313 313 313 313 311 312 312 311 311 309 306 305 307 309 304 303 302 301 299 298 298 298 298 298 298
301 300 297 301 302 304 298 299 297 296 299 304 303 297 296 297 300 307 310 315 315 315 315 315 315 315 314 313 312 312 312 313 314 313 312 312 312 312 312 311 310 292 305 305 304 303 302 300 299 298 298 298 298 300
300 304 302 297 298 300 300 299 300 304 307 305 301 300 301 307 310 309 312 314 316 314 312 311 312 314 314 314 314 313 312 312 310 307 306 306 306 308 311 310 309 308 306 304 288 295 300 300 299 299 299 299 300 301
297 304 300 297 296 297 302 305 305 308 309 308 308 307 307 307 310 314 313 312 310 310 311 311 311 310 310 310 309 311 313 313 313 310 307 306 307 309 311 310 308 307 306 305 304 303 287 294 296 299 299 300 301 301
302 302 297 298 297 303 304 308 308 308 308 308 309 307 306 307 309 311 312 313 312 311 311 309 310 310 309 308 308 308 308 312 313 314 314 313 312 312 311 311 310 308 306 304 304 303 302 301 301 301 300 300 300 298
299 297 297 295 297 305 306 305 305 304 304 305 304 306 306 304 302 306 310 311 309 307 302 305 308 308 311 312 312 312 296 312 313 313 314 313 312 313 312 311 310 308 306 305 304 303 303 301 301 301 300 300 300 300
298 298 298 297 297 297 302 303 301 300 301 301 301 302 302 302 299 305 313 314 311 309 308 309 310 311 313 313 314 313 302 314 309 294 293 293 293 299 310 311 309 307 305 304 304 303 303 302 301 302 302 301 300 300
Wind_Speed
8 10 12 14 16 17 18 19 20 20 21 21 21 21 19 17 12 3 4 5 3 6 8 7 4 3 3 2 1 6 5 4 5 2 1 3 3 4 6 6 4 6 5 5 3 2 4 13 7 8 8 7 10 8
7 10 12 14 16 17 18 18 19 20 20 20 20 20 20 20 15 7 6 4 6 7 7 8 11 10 7 7 3 2 4 3 4 2 3 4 5 3 3 4 6 4 8 5 8 7 6 11 10 10 9 10 10 13
7 9 12 14 15 16 17 18 19 19 20 19 19 18 18 18 17 10 7 6 10 12 10 5 7 8 11 7 5 3 3 3 4 5 5 4 7 3 5 6 10 7 1 3 6 9 12 13 13 14 14 12 12 14
8 10 12 14 15 16 17 18 19 19 19 18 17 15 15 14 15 11 5 4 2 4 5 8 5 6 10 7 6 7 10 7 5 5 7 5 5 4 7 9 10 8 5 7 7 11 1 10 13 17 17 14 16 16
7 10 12 13 15 16 17 18 19 19 19 18 17 14 12 8 7 7 7 7 4 4 6 8 9 13 9 10 15 13 10 8 7 9 9 8 7 6 5 9 11 7 9 8 7 10 10 13 14 17 16 16 16 17
7 10 12 14 15 16 17 18 19 19 18 17 16 15 12 4 4 4 6 6 8 7 8 6 4 8 10 12 15 13 9 9 8 6 6 5 2 3 3 6 6 9 11 13 7 7 9 11 11 14 15 16 16 15
7 10 12 14 15 17 18 18 18 19 17 15 13 11 11 11 4 4 5 5 9 6 7 6 6 5 3 8 8 10 10 7 7 6 7 5 5 0 7 7 7 6 6 6 7 9 9 10 11 14 15 16 14 14
8 10 12 14 15 17 18 19 19 19 17 13 10 6 5 13 10 4 5 6 8 1 2 4 6 6 4 6 6 1 5 5 5 5 4 6 3 3 5 8 4 3 1 4 5 6 7 9 11 13 14 15 16 15
8 10 12 14 16 17 18 19 19 19 16 12 8 3 3 2 3 4 11 11 3 5 3 3 7 8 1 4 4 3 1 5 1 4 4 3 3 7 9 7 5 6 4 5 4 6 9 11 10 11 11 13 14 15
8 11 13 14 16 17 19 20 20 19 14 10 4 2 3 3 6 7 3 1 3 3 3 4 1 6 2 4 3 2 1 3 2 4 3 5 4 8 8 5 3 0 3 5 9 10 11 12 11 13 13 11 11 12
9 11 13 14 15 18 19 21 21 18 7 2 2 3 4 3 3 2 3 4 3 4 4 3 6 4 4 2 4 3 2 1 2 5 2 4 4 7 4 2 1 3 3 5 6 8 9 10 12 12 13 13 13 13
10 11 13 14 14 18 18 18 20 4 4 4 2 2 3 3 4 4 3 2 4 4 3 2 5 4 3 2 1 1 1 2 4 2 2 3 5 6 3 2 1 4 6 7 6 8 9 11 13 13 13 13 13 15
10 12 13 13 13 19 16 14 8 5 4 2 1 4 4 3 8 3 2 3 3 2 3 2 4 2 4 1 3 0 2 5 3 1 3 3 9 5 3 1 2 2 5 7 8 10 12 13 14 14 14 15 16 15
10 12 12 11 13 18 16 12 5 4 4 4 4 7 4 3 4 4 5 5 5 2 3 2 3 2 2 3 2 3 3 3 2 2 3 7 8 5 3 2 3 6 7 10 11 13 13 13 13 13 13 13 13 14
11 12 12 8 19 18 16 11 5 3 4 4 3 3 4 3 3 4 3 1 4 3 2 2 3 1 3 3 2 3 3 3 3 3 6 8 6 5 3 1 5 6 9 9 10 10 11 12 13 13 13 13 14 15
12 9 4 15 18 18 13 7 1 1 3 3 5 4 3 2 4 3 3 4 4 2 2 2 2 2 3 1 2 2 2 2 4 4 7 7 6 4 2 3 5 6 7 8 9 10 11 12 13 14 14 14 14 15
8 4 12 16 20 16 9 2 2 5 4 3 4 3 4 4 4 4 3 4 3 4 2 1 2 4 1 2 3 2 2 6 6 6 5 5 5 3 2 3 4 6 8 8 8 9 10 12 13 12 14 14 15 13
3 7 11 17 13 5 3 5 3 4 5 3 3 4 4 3 2 4 4 3 3 1 1 3 1 2 1 2 4 5 6 5 5 5 4 4 3 3 2 4 6 7 7 7 8 10 11 12 12 10 12 13 13 12
7 9 13 15 6 3 3 4 4 4 4 3 4 3 3 3 3 2 2 3 3 2 2 1 2 2 3 3 7 6 5 5 5 5 5 4 5 4 2 4 6 6 7 7 8 7 8 10 8 9 9 10 10 9
6 7 12 7 6 2 3 4 2 3 2 3 2 3 3 3 2 2 3 2 1 1 3 2 3 4 5 5 4 4 5 5 4 3 4 5 3 2 2 6 6 6 6 6 6 4 8 8 7 8 8 9 9 10
6 7 9 5 3 5 4 2 4 3 2 2 2 1 3 1 2 3 4 1 1 2 3 3 5 6 6 5 5 4 5 2 2 3 2 1 2 2 3 4 5 5 5 6 7 7 5 7 8 8 9 9 9 8
4 7 3 3 3 3 3 3 3 2 1 3 2 1 1 2 2 3 4 2 2 4 3 5 5 6 6 6 5 2 4 3 1 2 2 3 4 3 3 4 5 6 6 6 6 7 7 6 7 8 9 9 9 9
7 3 1 4 2 4 2 1 0 2 3 3 3 2 2 2 2 2 1 1 3 3 4 5 6 4 4 6 4 4 5 5 4 4 3 4 4 4 5 4 4 5 6 6 6 6 7 4 4 7 8 9 10 10
4 4 5 4 3 2 0 2 1 1 2 2 2 2 2 1 1 2 2 2 4 5 5 6 6 5 5 4 5 5 5 6 6 4 4 5 6 6 4 5 5 5 5 5 6 6 6 6 5 7 8 10 10 11
3 5 2 3 1 1 2 2 1 1 2 2 2 2 2 1 2 2 1 0 4 5 5 6 6 5 5 5 4 4 4 6 6 6 5 4 6 6 6 5 4 4 4 5 6 6 6 6 6 7 9 9 12 13
4 2 2 1 2 0 1 2 1 1 1 2 1 1 2 2 3 2 1 1 0 3 6 7 7 6 6 6 5 4 3 4 6 7 6 5 6 6 7 7 6 6 1 4 5 6 7 7 7 10 9 10 7 10
1 2 2 0 1 1 2 1 1 2 2 2 1 2 2 3 2 2 2 1 2 1 3 5 6 7 7 5 3 2 3 4 7 7 5 5 6 6 7 8 8 6 2 5 5 6 7 7 8 8 8 9 9 9
3 1 0 2 1 1 0 1 2 3 2 1 2 4 2 2 1 2 1 2 3 3 4 4 6 6 7 6 5 4 5 5 5 6 6 7 7 7 8 6 6 6 5 5 6 6 7 7 7 8 9 10 9 8
2 1 2 3 3 3 3 3 2 1 0 2 2 2 3 2 2 3 2 3 3 5 6 7 7 7 7 7 7 7 7 6 8 12 14 10 9 7 9 6 6 6 6 7 8 8 9 8 8 9 10 9 9 8
1 2 3 3 4 3 0 2 1 1 1 2 3 2 4 5 5 4 5 6 7 8 8 8 8 9 8 10 10 11 9 8 9 10 10 10 9 7 3 5 7 7 6 7 7 7 7 8 9 10 10 9 8 8
1 2 3 3 4 2 3 2 3 4 3 4 4 5 7 7 6 6 7 8 8 7 7 9 9 10 10 11 11 12 11 10 11 14 13 10 9 7 7 8 7 7 7 8 8 8 8 8 9 10 11 12 13 11
3 5 3 5 4 1 3 4 4 4 4 5 7 7 6 7 10 7 6 4 5 5 5 6 8 9 11 10 10 10 8 9 10 8 12 9 10 10 9 8 9 8 8 9 9 9 10 12 11 11 12 15 15 15
3 4 5 4 3 4 4 4 4 6 7 8 9 10 10 10 12 5 2 5 6 7 8 9 9 8 9 11 10 9 8 9 11 5 6 7 8 7 7 8 8 9 11 11 11 11 13 15 14 15 16 17 17 17
Wind_Direction
15 0 353 346 347 341 343 344 346 346 344 344 347 349 352 353 345 338 65 12 11 86 66 46 40 58 118 314 292 114 185 182 186 199 138 109 99 75 97 53 40 42 331 41 51 102 96 4 37 24 9 343 327 345
12 358 350 348 344 340 342 341 345 345 344 343 347 351 350 356 357 313 76 37 17 66 91 77 67 44 29 8 342 123 56 58 39 110 115 148 136 146 188 98 38 66 34 38 4 63 68 41 21 353 331 315 313 330
11 356 352 346 339 339 337 339 345 345 343 343 347 353 353 354 5 23 72 1 98 107 104 97 29 25 23 1 344 292 104 98 90 317 85 82 85 269 98 84 113 93 35 111 165 33 74 48 11 16 11 3 332 318
7 356 349 341 338 337 338 339 344 343 342 341 344 351 354 354 2 21 58 4 22 86 95 70 26 36 354 44 80 60 106 90 136 96 74 84 103 16 64 78 59 8 327 47 92 27 101 52 0 3 348 348 343 343
3 352 340 337 335 338 336 338 340 340 341 340 342 346 349 348 336 54 65 38 23 334 115 108 85 33 49 73 84 88 92 114 94 87 93 87 104 96 93 83 45 7 8 21 48 23 4 6 353 357 347 347 345 335
359 346 340 337 336 337 334 335 336 338 339 339 341 340 347 353 267 241 102 64 15 352 133 99 106 60 73 82 82 81 89 83 87 82 89 87 31 275 97 99 52 55 53 36 26 346 17 7 14 6 357 357 353 342
357 343 337 338 336 335 332 333 335 336 336 335 335 340 351 6 44 25 45 353 336 291 119 125 114 83 52 102 89 94 83 65 76 89 65 93 91 322 66 88 119 72 56 42 30 11 21 18 8 8 360 359 353 360
350 339 339 338 333 332 331 333 334 332 331 329 328 336 49 88 119 84 43 349 311 35 23 94 105 151 346 120 111 338 103 99 35 87 125 105 102 108 87 110 140 146 142 40 16 31 16 1 2 6 1 4 4 6
340 339 342 333 333 330 330 331 333 329 325 318 312 280 237 355 40 31 342 307 347 6 69 153 152 119 234 101 115 135 303 89 152 104 89 256 57 40 113 104 65 26 1 19 321 355 356 350 355 352 0 357 357 359
338 343 335 331 329 330 335 333 332 326 315 303 277 266 102 29 335 275 184 124 49 58 31 75 269 108 267 170 122 162 9 114 137 66 168 75 78 102 77 69 44 318 275 360 346 355 349 341 345 336 346 347 345 346
343 334 329 330 326 334 339 337 333 320 263 6 21 47 1 335 237 18 68 27 12 91 30 53 13 102 38 256 81 352 65 145 183 99 286 105 123 160 152 35 337 284 337 333 330 341 349 339 335 335 337 332 330 334
333 326 324 326 326 340 341 343 335 1 22 13 357 239 247 6 33 59 51 98 31 63 77 25 53 26 78 306 249 87 83 221 76 151 129 90 122 158 132 71 278 23 355 338 338 332 331 338 337 332 325 333 331 327
325 324 324 326 328 340 340 344 2 81 202 227 220 55 24 19 46 29 100 112 111 45 35 20 121 10 166 253 85 41 79 61 174 106 97 73 145 130 175 133 64 348 344 338 330 328 328 331 333 336 331 329 330 328
321 317 321 322 330 334 336 337 326 232 281 40 36 24 9 65 62 39 51 54 58 359 26 352 100 18 35 78 352 94 69 215 153 148 88 142 168 139 128 122 312 347 339 333 336 336 338 337 334 333 334 338 332 333
314 316 318 328 336 331 329 327 292 282 27 55 31 50 67 75 75 45 31 97 49 340 309 176 128 308 66 106 49 105 154 124 24 82 109 116 127 141 140 279 329 340 342 342 342 340 338 339 337 337 336 334 336 332
320 305 354 335 330 327 322 301 266 33 63 59 35 112 117 121 93 83 47 66 31 328 243 245 109 94 81 34 121 73 124 81 105 98 103 130 143 144 124 358 1 358 347 343 340 345 341 344 340 335 335 340 339 332
312 20 341 329 328 313 304 329 34 49 50 58 82 40 55 66 49 41 5 24 350 268 69 350 80 55 147 109 114 2 72 91 115 120 113 102 131 122 56 45 4 348 341 345 345 344 341 340 337 336 342 339 338 337
13 337 344 333 334 315 41 14 65 68 75 75 104 84 76 43 58 60 31 17 291 64 353 56 124 151 83 132 122 116 112 108 93 102 103 116 127 106 69 10 349 349 346 343 344 337 339 343 334 343 334 337 327 338
310 316 324 322 335 336 28 60 347 83 65 73 106 97 61 81 81 54 31 62 47 28 129 144 95 71 93 86 115 121 135 144 132 119 109 116 121 113 0 338 336 353 339 339 337 342 334 331 331 333 331 336 331 338
293 292 331 326 313 16 76 63 296 74 95 76 140 87 54 48 33 33 64 59 53 100 66 57 63 87 104 100 89 101 106 128 159 163 147 149 154 222 11 331 351 326 311 327 323 318 339 324 347 343 342 328 334 348
316 1 327 328 32 39 53 5 81 31 101 97 87 1 82 130 69 47 61 331 113 25 98 99 106 97 94 98 97 122 128 113 52 356 38 186 145 297 306 318 326 323 318 329 332 333 300 339 338 340 332 334 342 319
359 318 318 359 43 72 78 34 18 81 304 90 149 303 97 89 70 40 313 72 76 95 96 125 121 140 138 145 139 179 106 176 175 123 179 182 260 264 300 331 325 327 324 326 327 324 326 333 347 330 328 336 317 331
292 276 13 9 75 66 77 268 137 32 156 127 185 159 145 150 55 295 231 43 93 108 139 130 132 160 144 137 175 193 216 227 239 238 222 262 285 275 281 290 303 311 306 321 333 318 321 338 311 326 319 328 334 335
202 27 20 32 39 82 163 75 73 117 155 178 182 151 144 75 335 241 237 182 110 139 170 164 182 176 185 214 234 228 210 226 258 259 251 271 271 267 254 294 311 308 302 316 315 310 314 323 311 324 334 331 336 338
33 360 20 340 36 170 113 119 120 163 139 144 185 156 132 222 246 237 255 127 173 189 182 189 209 225 242 241 237 247 199 249 252 260 261 231 271 274 262 252 258 273 294 292 299 321 318 317 317 325 328 334 336 333
70 29 38 36 99 326 89 132 150 130 144 169 164 101 209 254 250 230 178 82 248 213 204 210 218 227 229 243 262 284 284 220 251 257 263 256 251 271 285 294 301 306 178 277 302 309 307 305 313 320 322 327 319 319
84 102 99 22 352 143 150 104 102 246 215 214 172 211 228 244 235 171 128 155 306 5 243 233 236 239 249 252 221 219 226 229 241 265 300 289 275 277 277 280 290 315 338 274 284 287 291 298 303 311 316 317 323 324
30 330 27 115 166 313 263 226 224 232 195 171 229 216 242 228 229 111 27 55 315 298 279 250 242 245 246 244 244 218 204 225 233 249 253 254 250 253 249 255 263 116 267 269 271 268 268 277 291 299 304 307 311 317
218 145 245 211 231 228 237 239 245 200 61 220 257 233 251 234 330 283 279 264 262 264 261 259 244 234 244 232 234 241 242 217 229 244 257 270 274 234 206 227 243 222 226 241 192 241 268 275 286 295 298 296 297 299
190 216 254 237 238 236 180 232 307 73 239 295 305 270 245 247 258 281 275 265 256 258 265 268 266 264 244 253 251 239 222 229 235 251 267 273 280 278 272 216 230 234 232 236 252 251 192 231 242 239 249 260 276 285
302 226 252 252 267 282 313 300 257 249 249 245 234 260 267 288 286 272 259 265 272 273 266 265 264 258 256 256 256 256 258 251 233 232 246 257 262 257 239 243 242 239 239 235 243 252 261 258 262 271 279 282 287 286
219 230 245 255 263 265 253 239 238 239 238 237 249 234 253 250 271 286 286 248 253 267 268 270 280 279 273 261 253 263 262 273 280 248 239 234 237 247 247 240 238 236 239 239 242 252 260 263 269 273 278 281 284 287
251 237 248 272 256 243 214 239 248 263 253 259 262 267 269 281 288 280 191 228 270 294 303 299 295 288 276 266 258 255 247 256 264 271 260 239 253 254 252 241 239 238 240 243 250 255 258 263 268 272 274 277 281 284